Content
SEND FEEDBACK

Daily
Averages
Monthly
Summary
United States of America

PIONEER, CALIFORNIA


Home > North America > United States > California
Elevation: 4428 feet     Latitude: 38 30N     Longitude: 120 13W

WEATHER
 
SELECT A DAY
Number of Records: 174,516;   Date Range: 1/1/95 - 8/28/14
 
SHARE

PRINT THIS DATA

[ ← Previous Day ]
WEATHER ALMANAC - FEBRUARY 5, 2013
[ Next Day → ]
[ °C ]   °F
Weather ElementAverageHighLow
Temperature38.5 °F50 °F (11:53 am)26.1 °F (11:53 pm)
Dewpoint17.8 °F25 °F (7:53 pm)10 °F (11:53 am)
Humidity46.3 %75 % (1:53 am)20 % (11:53 am)
Barometer30.00 in30.07 in (7:53 am)29.89 in (3:53 pm)
Wind Speed7.6 mph18.4 mph (5:53 pm)
Wind Gust27.6 mph (3:53 pm)
Weather ElementAverage
Visibility10 mi
Wind DirectionSSE (156.1 °)

Weather ElementTotal
Precipitation---
Heating Degree Days27 (Base 65)
Averaged from 23 records on February 5, 2013
WEATHER CONDITIONS BREAKOUT
WIND DIRECTION BREAKOUT
WEATHER BY HOUR - FEBRUARY 5, 2013
[ °C ]   °F
Local TimeTemperatureDewpointHumidityBarometerVisibilityWind DirectionWind SpeedGust SpeedPrecipitationEventsConditions
1:53 AM28.9 °F21.9 °F75 %30.06 in10.0 miSouth (190°)3.5 mphClear
2:53 AM28.9 °F21.9 °F75 %30.04 in10.0 miCalmClear
3:53 AM42.1 °F19.0 °F40 %30.01 in10.0 miSSW (200°)6.9 mphClear
4:53 AM39.0 °F19.0 °F45 %30.04 in10.0 miSW (230°)4.6 mphClear
5:53 AM37.9 °F17.1 °F43 %30.04 in10.0 miSSW (210°)3.5 mphClear
6:53 AM30.0 °F17.1 °F59 %30.05 in10.0 miSouth (170°)3.5 mphClear
7:53 AM28.9 °F17.1 °F61 %30.07 in10.0 miSSW (210°)3.5 mphClear
8:53 AM35.1 °F15.1 °F44 %30.04 in10.0 miCalmClear
9:53 AM46.0 °F14.0 °F28 %30.01 in10.0 miSouth (170°)9.2 mphClear
10:53 AM48.9 °F12.0 °F23 %30.01 in10.0 miSSW (210°)8.1 mph21.9 mphClear
11:53 AM50.0 °F10.0 °F20 %29.97 in10.0 miSouth (190°)13.8 mph20.7 mphClear
12:53 PM48.9 °F14.0 °F25 %29.96 in10.0 miSSW (200°)10.4 mph20.7 mphClear
1:53 PM46.9 °F17.1 °F30 %29.94 in10.0 miSouth (180°)12.7 mph21.9 mphClear
2:53 PM45.0 °F19.0 °F36 %29.94 in10.0 miSouth (170°)6.9 mph21.9 mphClear
3:53 PM45.0 °F18.0 °F34 %29.89 in10.0 miSouth (180°)15.0 mph27.6 mphClear
4:53 PM44.1 °F18.0 °F35 %29.89 in10.0 miSouth (190°)17.3 mph24.2 mphClear
5:53 PM41.0 °F18.0 °F40 %29.92 in10.0 miSouth (180°)18.4 mph26.5 mphClear
6:53 PM37.9 °F24.1 °F57 %29.97 in10.0 miSouth (170°)15.0 mph23.0 mphClear
7:53 PM37.0 °F25.0 °F62 %30.01 in10.0 miSSE (150°)5.8 mph16.1 mphClear
8:53 PM35.1 °F23.0 °F61 %30.01 in10.0 miSouth (190°)9.2 mphClear
9:53 PM34.0 °F18.0 °F52 %29.99 in10.0 miSSW (200°)8.1 mphClear
10:53 PM28.9 °F15.1 °F56 %30.01 in10.0 miCalmClear
11:53 PM26.1 °F15.1 °F63 %30.03 in10.0 miCalmClear
Hourly data recorded from KTVL, located miles away from Pioneer, California







STORIES FROM OUR PARTNERS